Location: Brooks Farm Pond
(32.9618°N, 86.0700°W)
Time: 21:58:20
(UTC+00:00)

Cosmos 2227 Rocket - Pass Details

Date: 29 October 2020
Orbit: 839 x 845 km, 71.0° (Epoch: 01 December)

Event Time Altitude Azimuth Distance (km) Brightness Sun altitude
Rises 23:42:25 0° 345° (NNW) 3,402 5.4 -10.5°
Reaches altitude 10° 23:44:57 10° 351° (N) 2,465 4.6 -11.0°
Maximum altitude 23:50:26 50° 66° (ENE) 1,064 2.4 -12.1°
Drops below altitude 10° 23:55:54 10° 142° (SE) 2,456 4.3 -13.3°
Sets 23:58:25 0° 147° (SSE) 3,389 5.1 -13.8°
